Regional Weather Roundup
Issued by NWS

Home | Current Version | Previous Version | Graphics & Text | Print | Product List | Glossary On
Versions: 1 2 3 4 5 6 7 8 9 10 11 12 13 14 15 16 17 18 19 20 21 22 23 24 25 26 27 28 29 30 31 32 33 34 35 36 37 38 39 40 41 42 43 44 45 46 47 48 49 50
000
ASUS43 KMPX 240701
RWRMN
WEATHER ROUNDUP FOR MINNESOTA
NATIONAL WEATHER SERVICE TWIN CITIES/CHANHASSEN MN
200 AM CDT TUE MAY 24 2016


NOTE: "FAIR" INDICATES FEW OR NO CLOUDS BELOW 12,000 FEET WITH NO
SIGNIFICANT WEATHER AND/OR OBSTRUCTIONS TO VISIBILITY. N/A MEANS
CURRENT SKY AND/OR WEATHER CONDITIONS ARE NOT AVAILABLE.

MNZ060>063-068>070-240800-
   Twin Cities Metro

CITY           SKY/WX    TMP DP  RH WIND       PRES   REMARKS
TWIN CITIES    CLOUDY    67  61  81 S6        29.80S
ST PAUL        PTCLDY    65  62  90 S5        29.81S
CRYSTAL        CLOUDY    63  60  90 CALM      29.78R
BLAINE         CLOUDY    64  64 100 SE6       29.80R
EDEN PRAIRIE   CLOUDY    67  61  81 S6        29.78S
SOUTH ST PAUL  MOCLDY    65  62  88 S8        29.80S
LAKE ELMO      MOCLDY    64  61  88 S5        29.82S
$$
MNZ001>005-007-008-013>017-022>024-027-028-240800-
   Northwest Minnesota

CITY           SKY/WX    TMP DP  RH WIND       PRES   REMARKS
BEMIDJI        CLOUDY    62  56  79 SE9       29.76R
HALLOCK        CLOUDY    63  48  59 CALM      29.71S
ROSEAU         CLOUDY    63  48  59 SW5       29.74R
WARROAD        CLOUDY    59  48  67 S5        29.73S
THIEF RVR FALL CLOUDY    61  46  59 NE6       29.76F
CROOKSTON      CLOUDY    61  50  67 E7        29.73S
FOSSTON          N/A     63  54  72 SW5       29.76R
DETROIT LAKES  CLOUDY    59  54  82 E6        29.76S
MOORHEAD       CLOUDY    61  48  63 NW5       29.75R
PARK RAPIDS    CLOUDY    65  61  87 CALM      29.76R
MAHNOMEN       FAIR      60  53  76 E12       29.74S
$$
MNZ006-009>011-018-025>026-240800-
   North Central Minnesota

CITY           SKY/WX    TMP DP  RH WIND       PRES   REMARKS
BAUDETTE       CLOUDY    52  48  86 CALM      29.74R
FLAG ISLAND    PTCLDY    63  50  63 CALM      29.72R
INTL FALLS     FOG       50  49  96 CALM      29.75R VSB 1/4
WASKISH        MOCLDY    54  54 100 CALM      29.74F
BIG FORK       CLOUDY    55  54  94 CALM      29.76S
LONGVILLE      CLOUDY    63  61  94 CALM      29.78R
GRAND RAPIDS     N/A    N/A N/A N/A MISG        N/A
CRANE LAKE     MOCLDY    55  55 100 CALM      29.78S
ORR            CLOUDY    61  57  88 CALM      29.74S
COOK           CLOUDY    57  55  94 CALM      29.78S
WALKER         TSTM      62  61  94 CALM      29.76R
$$
MNZ012-019>021-037-240800-
   Northeast Minnesota

CITY           SKY/WX    TMP DP  RH WIND       PRES   REMARKS
DULUTH         MOCLDY    60  59  96 SE5       29.79S
ELY            CLOUDY    59  57  94 SE5       29.80S
HIBBING        CLOUDY    59  58  96 CALM      29.78S
EVELETH        CLOUDY    59  57  94 CALM      29.80S
DULUTH HARBOR  MOCLDY    61  59  94 CALM      29.79R
TWO HARBORS    CLOUDY    63  57  82 CALM      29.80R
SILVER BAY     CLOUDY    63  61  94 SE3       29.80R
GRAND MARAIS     N/A     55  54  96 CALM      29.78F
G MARAIS ARPRT RAIN      59  55  88 CALM      29.82R
$$
MNZ029>031-032-039>041-046>048-054>057-064-240800-
   West Central Minnesota

CITY           SKY/WX    TMP DP  RH WIND       PRES   REMARKS
FERGUS FALLS   PTCLDY    64  54  68 SE5       29.70F
WHEATON        CLOUDY    63  55  77 CALM      29.75S
MORRIS         MOCLDY    63  55  77 S3        29.74S
ALEXANDRIA     MOCLDY    61  60  97 S3        29.76S
ELBOW LAKE     FAIR      59  54  83 S7        29.75R
WADENA         CLOUDY    61  61 100 CALM      29.75S
GLENWOOD       CLOUDY    59  57  94 S3        29.77S
APPLETON       MOCLDY    64  57  77 SW3       29.74S
BENSON         CLOUDY    59  55  88 SW5       29.75S
ORTONVILLE     CLOUDY    61  55  82 S3        29.75R
MADISON        MOCLDY    59  55  88 S5        29.76S
WILLMAR        FAIR      63  61  94 SE5       29.78R
$$
MNZ033>034-036-042>043-049>051-058-059-240800-
   Central Minnesota

CITY           SKY/WX    TMP DP  RH WIND       PRES   REMARKS
ST CLOUD       CLOUDY    62  61  96 SE7       29.77R
PAYNESVILLE    CLOUDY    62  62  99 S6        29.78R
AITKIN         CLOUDY    63  57  82 CALM      29.76R
PINE RIVER     CLOUDY    61  61 100 SE3       29.80S
BRAINERD       CLOUDY    58  58 100 CALM      29.76S FOG
STAPLES        CLOUDY    61  61 100 CALM      29.75S
LONG PRAIRIE   FAIR      59  59 100 CALM      29.77R
LITTLE FALLS   CLOUDY    59  55  88 SE3       29.76S
LITCHFIELD     MOCLDY    64  64 100 S3        29.79R
BUFFALO        CLOUDY    63  60  91 SE6       29.80R
MAPLE LAKE     MOCLDY    63  63  99 S3        29.79S
HUTCHINSON     CLOUDY    66  64  93 S5        29.79F
$$
MNZ037-044-045-052-053-240800-
   East Central Minnesota

CITY           SKY/WX    TMP DP  RH WIND       PRES   REMARKS
PRINCETON      CLOUDY    63  61  94 SE3       29.78S
MORA           CLOUDY    59  55  88 E3        29.81R
CAMBRIDGE      CLOUDY    63  55  77 SE6       29.77R
RUSH CITY      CLOUDY    61  59  94 SE7       29.80R
MOOSE LAKE     CLOUDY    61  59  94 CALM      29.75F
HINCKLEY       CLOUDY    61  61 100 SE5       29.79S
CLOQUET        CLOUDY    59  57  94 CALM      29.78S
MCGREGOR         N/A     59  59 100 CALM      29.77S
$$
MNZ071>073-080-081-089-090-097-098-240800-
   Southwest Minnesota

CITY           SKY/WX    TMP DP  RH WIND       PRES   REMARKS
MONTEVIDEO     CLOUDY    63  61  94 SW7       29.77S
GRANITE FALLS  CLOUDY    65  62  90 S7        29.78S
CANBY          MOCLDY    67  63  87 SW8       29.77S
MARSHALL       CLOUDY    64  61  90 SW10      29.78S
REDWOOD FALLS  MOCLDY    63  60  90 S12       29.77S
OLIVIA         CLOUDY    57  54  88 SE7       29.77R
PIPESTONE      CLOUDY    63  61  94 S6        29.80R FOG
WINDOM         MOCLDY    64  61  88 CALM      29.80R
WORTHINGTON    CLOUDY    63  61  93 S13       29.81R
JACKSON        CLOUDY    64  59  82 S9        29.81S
TRACY          CLOUDY    64  63  94 SW8       29.79S
SLAYTON        CLOUDY    62  62 100 SW12      29.81S FOG
$$
MNZ065>067-074>077-082>085-091>093-240800-
   South Central Minnesota

CITY           SKY/WX    TMP DP  RH WIND       PRES   REMARKS
MANKATO        CLOUDY    66  59  77 S8        29.81F
NEW ULM        CLOUDY    64  63  94 S7        29.79F
ST JAMES       CLOUDY    61  57  88 SE5       29.80F
FAIRMONT       CLOUDY    64  59  82 S12       29.80S
GLENCOE        CLOUDY    66  64  94 SE3       29.79S
FARIBAULT      CLOUDY    66  61  82 S5        29.82F
OWATONNA       CLOUDY    66  59  77 S9        29.82F
WASECA         CLOUDY    63  57  82 S12       29.83F
ALBERT LEA     DRIZZLE   66  59  77 S3        29.84S
$$
MNZ078>079-086>088-094>096-240800-
   Southeast Minnesota

CITY           SKY/WX    TMP DP  RH WIND       PRES   REMARKS
ROCHESTER      CLOUDY    66  61  84 SW10      29.86R
RED WING       LGT RAIN  64  63  94 CALM      29.81F
STANTON        CLOUDY    66  60  81 S5        29.80F
DODGE CENTER   LGT RAIN  64  61  88 SW10      29.84F
WINONA         LGT RAIN  68  63  83 E3        29.83F
AUSTIN         CLOUDY    64  61  88 S5        29.85S
PRESTON        CLOUDY    63  60  91 S6        29.85F
$$
ABBREVIATIONS USED IN REMARKS
   TC - TEMPERATURES IN CELSIUS
  WCI - WIND CHILL INDEX
   HX - HEAT INDEX
  VSB - VISIBILITY
$$



USA.gov is the U.S. government's official web portal to all federal, state and local government web resources and services.